Location: Brookview Estates
(36.0476°N, 86.6931°W)
Time: 07:09:36
(UTC+00:00)

CZ-4B R/B - Visible Passes

Search period start: 11 August 2020 00:00
Search period end: 21 August 2020 00:00
Orbit: 390 x 465 km, 97.6° (Epoch: 11 August)

Date Brightness Start Highest point End Pass type
(mag) Time Alt. Az. Time Alt. Az. Time Alt. Az.
11 Aug 1.3 10:26:49 10° S 10:30:03 57° W 10:33:13 10° NNW visible
12 Aug 3.5 09:45:31 10° SE 09:48:22 29° ENE 09:51:10 10° NNE visible
13 Aug 1.7 10:35:39 10° S 10:38:45 41° W 10:41:47 10° NNW visible
14 Aug 2.9 09:54:00 10° SE 09:57:01 37° ENE 09:59:59 10° N visible
16 Aug 2.2 10:02:32 10° SSE 10:05:39 51° ENE 10:08:42 10° N visible
17 Aug 4.7 09:22:36 10° E 09:24:03 13° ENE 09:25:29 10° NE visible
18 Aug 1.5 10:11:06 10° SSE 10:14:15 71° ENE 10:17:22 10° N visible
19 Aug 4.5 09:30:36 10° ESE 09:32:36 16° ENE 09:34:36 10° NNE visible
20 Aug 1.1 10:19:41 10° S 10:22:51 83° WSW 10:25:57 10° NNW visible
